This is the latest recevied weather packets stored in our database for station/object N4RCT. If no packets are shown the sender has not sent any weather packets the latest 1 day(s).
| Time | Temp. | Humidity | Pressure | Rain* | Wind** | Luminosity | Snow |
|---|---|---|---|---|---|---|---|
| 1778022931 | 23.33° C | 49% | 1011.7 hPa | 0 mm | 0 m/s | 19 W/m² | - |
| 1778022630 | 23.33° C | 48% | 1012.1 hPa | 0 mm | 0 m/s | 25 W/m² | - |
| 1778022327 | 23.89° C | 47% | 1012 hPa | 0 mm | 0.45 m/s, 153° | 26 W/m² | - |
| 1778022024 | 23.89° C | 47% | 1011.8 hPa | 0 mm | 0.45 m/s, 243° | 31 W/m² | - |
| 1778021721 | 24.44° C | 46% | 1011.9 hPa | 0 mm | 0.45 m/s, 7° | 39 W/m² | - |
| 1778021417 | 24.44° C | 47% | 1012 hPa | 0 mm | 0 m/s | 62 W/m² | - |
| 1778021114 | 24.44° C | 45% | 1011.6 hPa | 0 mm | 0 m/s | 55 W/m² | - |
| 1778020811 | 24.44° C | 44% | 1011.9 hPa | 0 mm | 0.45 m/s, 170° | 73 W/m² | - |
| 1778020508 | 24.44° C | 46% | 1011.8 hPa | 0 mm | 0 m/s | 75 W/m² | - |
| 1778020216 | 24.44° C | 46% | 1011.9 hPa | 0 mm | 0 m/s | 82 W/m² | - |
| 1778019901 | 24.44° C | 46% | 1011.7 hPa | 0 mm | 0 m/s | 54 W/m² | - |
| 1778019596 | 24.44° C | 49% | 1011.7 hPa | 0 mm | 0 m/s | 53 W/m² | - |
| 1778019294 | 24.44° C | 45% | 1011.6 hPa | 0 mm | 0 m/s | 69 W/m² | - |
| 1778018991 | 24.44° C | 47% | 1011.5 hPa | 0 mm | 0.45 m/s, 108° | 101 W/m² | - |
| 1778018688 | 24.44° C | 47% | 1011.7 hPa | 0 mm | 0 m/s | 147 W/m² | - |
| 1778018385 | 23.89° C | 46% | 1011.3 hPa | 0 mm | 0.45 m/s, 177° | 142 W/m² | - |
| 1778018084 | 23.89° C | 47% | 1011.5 hPa | 0 mm | 0 m/s | 69 W/m² | - |
| 1778017781 | 23.89° C | 50% | 1011.9 hPa | 0 mm | 0 m/s | 60 W/m² | - |
| 1778017479 | 23.89° C | 49% | 1011.5 hPa | 0 mm | 0 m/s | 76 W/m² | - |
| 1778017176 | 23.89° C | 48% | 1011.9 hPa | 0 mm | 0 m/s | 84 W/m² | - |
| 1778016873 | 23.89° C | 47% | 1011.9 hPa | 0 mm | 0 m/s | 88 W/m² | - |
| 1778016569 | 24.44° C | 46% | 1012 hPa | 0 mm | 0 m/s | 90 W/m² | - |
| 1778016267 | 24.44° C | 47% | 1011.7 hPa | 0 mm | 0.45 m/s, 178° | 125 W/m² | - |
| 1778015963 | 24.44° C | 48% | 1011.7 hPa | 0 mm | 0 m/s | 189 W/m² | - |
| 1778015660 | 25° C | 44% | 1011.4 hPa | 0 mm | 0 m/s | 166 W/m² | - |
* Rain latest hour (hover to see other rain measurements)
** Current wind speed in m/s (hover to see current wind gust speed)